This is the latest recevied weather packets stored in our database for station/object DO1BDB-12. If no packets are shown the sender has not sent any weather packets the latest 10 day(s).
| Time | Temp. | Humidity | Pressure | Rain* | Wind** | Luminosity | Snow |
|---|---|---|---|---|---|---|---|
| 1777460048 | 13.89° C | 34% | 103.1 hPa | - | - | - | - |
| 1777459982 | 13.89° C | 32% | 103.1 hPa | - | - | - | - |
| 1777459916 | 15° C | 30% | 103.1 hPa | - | - | - | - |
| 1777459850 | 18.33° C | 30% | 103.1 hPa | - | - | - | - |
| 1777459784 | 16.67° C | 31% | 103.1 hPa | - | - | - | - |
| 1777459719 | 18.33° C | 29% | 103.1 hPa | - | - | - | - |
| 1777459653 | 18.89° C | 30% | 103.1 hPa | - | - | - | - |
| 1777459587 | 17.78° C | 29% | 103.1 hPa | - | - | - | - |
| 1777459522 | 16.67° C | 30% | 103.1 hPa | - | - | - | - |
| 1777459455 | 16.67° C | 31% | 103.1 hPa | - | - | - | - |
| 1777459389 | 18.33° C | 29% | 103.1 hPa | - | - | - | - |
| 1777459323 | 17.78° C | 33% | 103.1 hPa | - | - | - | - |
| 1777459258 | 15.56° C | 33% | 103.1 hPa | - | - | - | - |
| 1777459192 | 18.89° C | 30% | 103.1 hPa | - | - | - | - |
| 1777459126 | 18.89° C | 29% | 103.1 hPa | - | - | - | - |
| 1777459060 | 18.33° C | 27% | 103.1 hPa | - | - | - | - |
| 1777458994 | 17.78° C | 29% | 103.1 hPa | - | - | - | - |
| 1777458929 | 17.22° C | 29% | 103.1 hPa | - | - | - | - |
| 1777458863 | 16.11° C | 29% | 103.1 hPa | - | - | - | - |
| 1777458797 | 17.78° C | 29% | 103.1 hPa | - | - | - | - |
| 1777458731 | 17.78° C | 28% | 103.1 hPa | - | - | - | - |
| 1777458665 | 18.33° C | 29% | 103.1 hPa | - | - | - | - |
| 1777458599 | 17.78° C | 30% | 103.1 hPa | - | - | - | - |
| 1777458533 | 16.11° C | 30% | 103.1 hPa | - | - | - | - |
| 1777458468 | 15° C | 32% | 103.1 hPa | - | - | - | - |
* Rain since midnight (hover to see other rain measurements)
** Current wind speed in m/s (hover to see current wind gust speed)